Home   Weather   Palma   Past weeks

Flag for Spain Past Weather in Palma, Majorca, Spain — Yesterday and Last 2 Weeks

Now
64 °F

Partly sunny.


Feels Like: 64 °F
Forecast: 50 / 64 °F
Wind: 12 mph from Southwest

Location: Palma De Mallorca / Son San Juan

Current Time: Apr 30, 2017 at 9:00:19 pm

Latest Report: Apr 30, 2017 at 8:00 pm


Visibility: N/A

Pressure: 29.86 "Hg

Humidity: 78%

Dew Point: 57 °F

Location of PalmaLocation

Past Weather in Palma — Graph

°F

Palma Temperature Yesterday

Maximum temperature yesterday: 64 °F (at 12:30 pm)
Minimum temperature yesterday: 37 °F (at 5:00 am)
Average temperature yesterday: 52 °F

High & Low Weather Summary for the Past Weeks

 TemperatureHumidityPressure
High75 °F (Apr 18, 12:30 pm)100% (Apr 16, 7:00 am)30.39 "Hg (Apr 16, 7:00 am)
Low37 °F (Apr 29, 5:00 am)28% (Apr 21, 3:00 pm)29.71 "Hg (Apr 26, 5:00 am)
Average57 °F71%30.06 "Hg
* Reported Apr 15 7:00 pm — Apr 30 7:30 pm, Palma, Weather by CustomWeather, © 2017

Note: Actual official high and low records may vary slightly from our data, if they occured in-between our weather recording intervals... More about our weather records

Advertising

Palma Weather History for the Previous 24 Hours

Scroll right to see more
 ConditionsComfort  
Time TempWeatherWind HumidityBarometerVisibility
7:30 pm
Sun, Apr 30
64 °FPartly sunny.13 mph78%29.86 "HgN/A
7:00 pm64 °FPartly sunny.13 mph83%29.86 "HgN/A
6:30 pm64 °FPartly sunny.14 mph78%29.89 "HgN/A
6:00 pm64 °FPartly sunny.15 mph78%29.89 "HgN/A
5:30 pm64 °FPartly sunny.15 mph78%29.89 "HgN/A
5:00 pm64 °FPartly sunny.16 mph78%29.89 "HgN/A
4:30 pm66 °FPartly sunny.15 mph73%29.89 "HgN/A
4:00 pm64 °FPartly sunny.15 mph73%29.92 "HgN/A
3:30 pm64 °FPartly sunny.15 mph73%29.92 "HgN/A
3:00 pm66 °FPartly sunny.16 mph68%29.92 "HgN/A
2:00 pm66 °FPartly sunny.16 mph64%29.92 "HgN/A
1:30 pm66 °FOvercast.14 mph64%29.95 "HgN/A
1:00 pm66 °FOvercast.13 mph64%29.95 "HgN/A
12:30 pm64 °FOvercast.13 mph64%29.95 "HgN/A
12:00 pm63 °FPartly sunny.10 mph73%29.95 "HgN/A
11:30 am63 °FPartly sunny.10 mph68%29.95 "HgN/A
11:00 am63 °FPartly sunny.8 mph68%29.95 "HgN/A
10:30 am61 °FPartly sunny.8 mph72%29.95 "HgN/A
10:00 am57 °FPartly sunny.No wind77%29.95 "HgN/A
9:30 am57 °FPartly sunny.2 mph82%29.98 "HgN/A
9:00 am55 °FPartly sunny.No wind82%29.98 "HgN/A
8:30 am52 °FPartly sunny.1 mph94%29.98 "HgN/A
8:00 am48 °FPartly sunny.1 mph94%29.98 "HgN/A
7:30 am46 °FSleet. Fog.1 mph93%29.98 "HgN/A
7:00 am46 °FSleet. Fog.1 mph93%29.98 "HgN/A
6:30 am46 °FPassing clouds.No wind93%29.98 "HgN/A
5:30 am46 °FPassing clouds.No wind93%29.95 "HgN/A
5:00 am46 °FPassing clouds.1 mph87%29.95 "HgN/A
4:30 am46 °FPassing clouds.3 mph87%29.95 "HgN/A
4:00 am46 °FPassing clouds.1 mph93%29.98 "HgN/A
3:30 am46 °FPassing clouds.2 mph93%29.98 "HgN/A
3:00 am46 °FPassing clouds.2 mph93%29.98 "HgN/A
2:30 am48 °FPassing clouds.1 mph87%29.98 "HgN/A
2:00 am48 °FPassing clouds.3 mph87%29.98 "HgN/A
1:30 am48 °FPassing clouds.3 mph87%29.98 "HgN/A
1:00 am48 °FPassing clouds.2 mph87%29.98 "HgN/A
12:30 am50 °FPassing clouds.2 mph82%29.98 "HgN/A
12:00 am50 °FPassing clouds.2 mph88%30.01 "HgN/A
11:30 pm
Sat, Apr 29
50 °FPassing clouds.1 mph82%30.01 "HgN/A
11:00 pm54 °FPassing clouds.1 mph72%30.01 "HgN/A
10:30 pm57 °FPassing clouds.2 mph63%29.98 "HgN/A
9:30 pm57 °FPassing clouds.2 mph67%29.98 "HgN/A
9:00 pm59 °FPassing clouds.5 mph63%29.98 "HgN/A
Weather by CustomWeather, © 2017

See weather overviewHow to use our weather pages